Location: Arrien
(43.3167°N, 0.1500°W)
Time: 23:39:09
(UTC+00:00)

CZ-4C R/B - Pass Details

Date: 15 October 2021
Orbit: 403 x 482 km, 97.7° (Epoch: 04 December)

Event Time Altitude Azimuth Distance (km) Brightness Sun altitude
Rises 17:53:06 0° 20° (NNE) 2,513 6.4 -7.3°
Reaches altitude 10° 17:55:17 10° 28° (NNE) 1,619 5.4 -7.7°
Maximum altitude 17:58:33 38° 98° (E) 714 3.4 -8.2°
Drops below altitude 10° 18:01:42 10° 168° (SSE) 1,562 5.6 -8.8°
Sets 18:03:46 0° 177° (S) 2,411 6.6 -9.2°
